Surface/Precipitation History
06/17/2018 11:34  to  6/18/2018 11:34
Change End Date:
Date/Time
(MDT)
Sf
Temp Chem Water Layer Surface Precipitation
Sfc Pvt Sub Frz Factor Pct Dpth DpthThk IcePct Cond Salin FI Type Intens Accum Rate
06/18/2018 11:12 Wet 59.5F - - 32F 5 0% 0.00 in - 0% 0 mhos 0 - Yes - - -
06/18/2018 11:07 Wet 59.4F - - 32F 5 0% 0.00 in - 0% 0 mhos 0 - None None - -
06/18/2018 10:57 Wet 59.2F - - 32F 5 0% 0.00 in - 0% 0 mhos 0 - Yes - - -
06/18/2018 10:56 Wet 59.2F - - 32F 5 0% 0.00 in - 0% 0 mhos 0 - Yes - - -
06/18/2018 10:47 Wet 58.3F - - 32F 5 0% 0.00 in - 0% 0 mhos 0 - Yes - - -
06/18/2018 10:41 Wet 58.6F - - 32F 5 0% 0.00 in - 0% 0 mhos 0 - Yes - - -
06/18/2018 10:37 Wet 58.1F - - 32F 5 0% 0.00 in - 0% 0 mhos 0 - Yes - - -
06/18/2018 10:26 Wet 58.1F - - 32F 5 0% 0.00 in - 0% 0 mhos 0 - Yes - - -
06/18/2018 10:26 Wet 58.1F - - 32F 5 0% 0.00 in - 0% 0 mhos 0 - Yes - - -
06/18/2018 10:16 Wet 58.3F - - 32F 5 0% 0.00 in - 0% 0 mhos 0 - Yes - - -
06/18/2018 10:11 Wet 57.4F - - 32F 5 0% 0.00 in - 0% 0 mhos 0 - Yes - - -
06/18/2018 10:06 Wet 57.4F - - 32F 5 0% 0.00 in - 0% 0 mhos 0 - None None - -
06/18/2018 09:56 Wet 57.0F - - 32F 5 0% 0.00 in - 0% 0 mhos 0 - Yes - - -
06/18/2018 09:56 Wet 57.0F - - 32F 5 0% 0.00 in - 0% 0 mhos 0 - Yes - - -
06/18/2018 09:46 Wet 55.4F - - 32F 5 0% 0.00 in - 0% 0 mhos 0 - Yes - - -
Date/Time
(MDT)
Sf
Temp Chem Water Layer Surface Precipitation
Sfc Pvt Sub Frz Factor Pct Dpth DpthThk IcePct Cond Salin FI Type Intens Accum Rate
06/18/2018 09:41 Wet 55.0F - - 32F 5 0% 0.00 in - 0% 0 mhos 0 - Yes - - -
06/18/2018 09:36 Wet 54.5F - - 32F 5 0% 0.00 in - 0% 0 mhos 0 - None None - -
06/18/2018 09:26 Wet 53.8F - - 32F 5 0% 0.00 in - 0% 0 mhos 0 - Yes - - -
06/18/2018 09:26 Wet 53.8F - - 32F 5 0% 0.00 in - 0% 0 mhos 0 - Yes - - -
06/18/2018 09:16 Wet 53.8F - - 32F 5 0% 0.00 in - 0% 0 mhos 0 - Yes - - -
06/18/2018 09:11 Wet 53.8F - - 32F 5 0% 0.00 in - 0% 0 mhos 0 - None None - -
06/18/2018 09:06 Wet 54.0F - - 32F 5 0% 0.00 in - 0% 0 mhos 0 - None None - -
06/18/2018 08:56 Wet 54.5F - - 32F 5 0% 0.00 in - 0% 0 mhos 0 - None None - -
06/18/2018 08:56 Wet 54.5F - - 32F 5 0% 0.00 in - 0% 0 mhos 0 - Yes - - -
06/18/2018 08:46 Wet 54.1F - - 32F 5 0% 0.00 in - 0% 0 mhos 0 - Yes - - -
06/18/2018 08:41 Wet 53.8F - - 32F 5 0% 0.00 in - 0% 0 mhos 0 - Yes - - -
06/18/2018 08:36 Wet 53.6F - - 32F 5 0% 0.00 in - 0% 0 mhos 0 - Yes - - -
06/18/2018 08:26 Wet 52.7F - - 32F 5 0% 0.00 in - 0% 0 mhos 0 - Yes - - -
06/18/2018 08:26 Wet 52.7F - - 32F 5 0% 0.00 in - 0% 0 mhos 0 - Yes - - -
06/18/2018 08:16 Wet 52.9F - - 32F 5 0% 0.00 in - 0% 0 mhos 0 - Yes - - -
Date/Time
(MDT)
Sf
Temp Chem Water Layer Surface Precipitation
Sfc Pvt Sub Frz Factor Pct Dpth DpthThk IcePct Cond Salin FI Type Intens Accum Rate
06/18/2018 08:11 Wet 52.7F - - 32F 5 0% 0.10 in - 0% 0 mhos 0 - Yes - - -
06/18/2018 08:06 Wet 52.9F - - 32F 5 0% 0.10 in - 0% 0 mhos 0 - Yes - - -
06/18/2018 07:56 Wet 53.1F - - 32F 5 0% 0.10 in - 0% 0 mhos 0 - Yes - - -
06/18/2018 07:56 Wet 52.7F - - 32F 5 0% 0.00 in - 0% 0 mhos 0 - Yes - - -
06/18/2018 07:45 Wet 52.5F - - 32F 5 0% 0.00 in - 0% 0 mhos 0 - Yes - - -
06/18/2018 07:41 Wet 52.3F - - 32F 5 0% 0.10 in - 0% 0 mhos 0 - Yes - - -
06/18/2018 07:35 Wet 52.2F - - 32F 5 0% 0.00 in - 0% 0 mhos 0 - Yes - - -
06/18/2018 07:26 Wet 52.3F - - 32F 5 0% 0.10 in - 0% 0 mhos 0 - Yes - - -
06/18/2018 07:25 Wet 52.2F - - 32F 5 0% 0.00 in - 0% 0 mhos 0 - Yes - - -
06/18/2018 07:15 Wet 52.0F - - 32F 5 0% 0.10 in - 0% 0 mhos 0 - Yes - - -
06/18/2018 07:11 Wet 52.2F - - 32F 5 0% 0.10 in - 0% 0 mhos 0 - Yes - - -
06/18/2018 07:05 Wet 51.8F - - 32F 5 0% 0.00 in - 0% 0 mhos 0 - Yes - - -
06/18/2018 06:56 Wet 51.6F - - 32F 5 0% 0.00 in - 0% 0 mhos 0 - Yes - - -
06/18/2018 06:55 Wet 51.8F - - 32F 5 0% 0.10 in - 0% 0 mhos 0 - Yes - - -
06/18/2018 06:45 Wet 51.6F - - 32F 10 0% 0.10 in - 0% 0 mhos 0 - Yes - - -
Date/Time
(MDT)
Sf
Temp Chem Water Layer Surface Precipitation
Sfc Pvt Sub Frz Factor Pct Dpth DpthThk IcePct Cond Salin FI Type Intens Accum Rate
06/18/2018 06:41 Wet 51.8F - - 32F 5 0% 0.00 in - 0% 0 mhos 0 - Yes - - -
06/18/2018 06:35 Wet 51.4F - - 32F 5 0% 0.10 in - 0% 0 mhos 0 - Yes - - -
06/18/2018 06:26 Wet 51.6F - - 32F 5 0% 0.10 in - 0% 0 mhos 0 - Yes - - -
06/18/2018 06:25 Wet 51.6F - - 32F 5 0% 0.10 in - 0% 0 mhos 0 - Yes - - -
06/18/2018 06:15 Wet 51.6F - - 32F 15 0% 0.10 in - 0% 0 mhos 0 - Yes - - -
06/18/2018 06:11 Wet 51.6F - - 32F 10 0% 0.10 in - 0% 0 mhos 0 - Yes - - -
06/18/2018 06:05 Wet 51.6F - - 32F 5 0% 0.00 in - 0% 0 mhos 0 - Yes - - -
06/18/2018 05:56 Wet 51.6F - - 32F 5 0% 0.00 in - 0% 0 mhos 0 - Yes - - -
06/18/2018 05:55 Wet 51.8F - - 32F 5 0% 0.10 in - 0% 0 mhos 0 - Yes - - -
06/18/2018 05:45 Wet 51.6F - - 32F 5 0% 0.10 in - 0% 0 mhos 0 - Yes - - -
06/18/2018 05:41 Wet 51.6F - - 32F 5 0% 0.10 in - 0% 0 mhos 0 - Yes - - -
06/18/2018 05:35 Wet 51.8F - - 32F 20 0% 0.10 in - 0% 0 mhos 0 - Yes - - -
06/18/2018 05:26 Wet 51.8F - - 32F 5 0% 0.00 in - 0% 0 mhos 0 - Yes - - -
06/18/2018 05:25 Wet 51.8F - - 32F 5 0% 0.10 in - 0% 0 mhos 0 - Yes - - -
06/18/2018 05:15 Wet 51.8F - - 32F 10 0% 0.10 in - 0% 0 mhos 0 - Yes - - -
Date/Time
(MDT)
Sf
Temp Chem Water Layer Surface Precipitation
Sfc Pvt Sub Frz Factor Pct Dpth DpthThk IcePct Cond Salin FI Type Intens Accum Rate
06/18/2018 05:11 Wet 51.8F - - 32F 10 0% 0.10 in - 0% 0 mhos 0 - Yes - - -
06/18/2018 05:05 Wet 51.8F - - 32F 5 0% 0.10 in - 0% 0 mhos 0 - Yes - - -
06/18/2018 04:56 Wet 52.0F - - 32F 15 0% 0.10 in - 0% 0 mhos 0 - Yes - - -
06/18/2018 04:55 Wet 52.0F - - 32F 10 0% 0.10 in - 0% 0 mhos 0 - Yes - - -
06/18/2018 04:44 Wet 52.0F - - 32F 10 0% 0.10 in - 0% 0 mhos 0 - Yes - - -
06/18/2018 04:41 Wet 51.8F - - 32F 5 0% 0.10 in - 0% 0 mhos 0 - Yes - - -
06/18/2018 04:34 Wet 52.0F - - 32F 5 0% 0.00 in - 0% 0 mhos 0 - Yes - - -
06/18/2018 04:26 Wet 52.0F - - 32F 5 0% 0.10 in - 0% 0 mhos 0 - Yes - - -
06/18/2018 04:24 Wet 52.0F - - 32F 5 0% 0.10 in - 0% 0 mhos 0 - Yes - - -
06/18/2018 04:14 Wet 52.2F - - 32F 5 0% 0.00 in - 0% 0 mhos 0 - Yes - - -
06/18/2018 04:11 Wet 52.2F - - 32F 5 0% 0.10 in - 0% 0 mhos 0 - Yes - - -
06/18/2018 04:04 Wet 52.3F - - 32F 5 0% 0.00 in - 0% 0 mhos 0 - Yes - - -
06/18/2018 03:56 Wet 52.2F - - 32F 5 0% 0.00 in - 0% 0 mhos 0 - Yes - - -
06/18/2018 03:54 Wet 52.2F - - 32F 5 0% 0.10 in - 0% 0 mhos 0 - Yes - - -
06/18/2018 03:44 Wet 52.2F - - 32F 5 0% 0.10 in - 0% 0 mhos 0 - Yes - - -
Date/Time
(MDT)
Sf
Temp Chem Water Layer Surface Precipitation
Sfc Pvt Sub Frz Factor Pct Dpth DpthThk IcePct Cond Salin FI Type Intens Accum Rate
06/18/2018 03:41 Wet 52.2F - - 32F 5 0% 0.10 in - 0% 0 mhos 0 - Yes - - -
06/18/2018 03:34 Wet 52.3F - - 32F 5 0% 0.00 in - 0% 0 mhos 0 - Yes - - -
06/18/2018 03:26 Wet 52.3F - - 32F 5 0% 0.00 in - 0% 0 mhos 0 - Yes - - -
06/18/2018 03:24 Wet 52.3F - - 32F 5 0% 0.00 in - 0% 0 mhos 0 - Yes - - -
06/18/2018 03:14 Wet 52.3F - - 32F 5 0% 0.00 in - 0% 0 mhos 0 - Yes - - -
06/18/2018 03:11 Wet 52.3F - - 32F 5 0% 0.00 in - 0% 0 mhos 0 - Yes - - -
06/18/2018 03:04 Wet 52.3F - - 32F 5 0% 0.00 in - 0% 0 mhos 0 - None None - -
06/18/2018 02:56 Wet 52.3F - - 32F 5 0% 0.00 in - 0% 0 mhos 0 - Yes - - -
06/18/2018 02:54 Wet 52.5F - - 32F 5 0% 0.00 in - 0% 0 mhos 0 - Yes - - -
06/18/2018 02:44 Wet 52.5F - - 32F 5 0% 0.00 in - 0% 0 mhos 0 - Yes - - -
06/18/2018 02:41 Wet 52.7F - - 32F 5 0% 0.00 in - 0% 0 mhos 0 - Yes - - -
06/18/2018 02:34 Wet 52.7F - - 32F 5 0% 0.00 in - 0% 0 mhos 0 - Yes - - -
06/18/2018 02:26 Wet 52.7F - - 32F 5 0% 0.00 in - 0% 0 mhos 0 - Yes - - -
06/18/2018 02:24 Wet 52.7F - - 32F 5 0% 0.00 in - 0% 0 mhos 0 - Yes - - -
06/18/2018 02:13 Wet 52.7F - - 32F 5 0% 0.00 in - 0% 0 mhos 0 - Yes - - -
Date/Time
(MDT)
Sf
Temp Chem Water Layer Surface Precipitation
Sfc Pvt Sub Frz Factor Pct Dpth DpthThk IcePct Cond Salin FI Type Intens Accum Rate
06/18/2018 02:11 Wet 52.7F - - 32F 5 0% 0.00 in - 0% 0 mhos 0 - Yes - - -
06/18/2018 02:03 Wet 52.7F - - 32F 5 0% 0.00 in - 0% 0 mhos 0 - Yes - - -
06/18/2018 01:56 Wet 52.7F - - 32F 5 0% 0.00 in - 0% 0 mhos 0 - Yes - - -
06/18/2018 01:53 Wet 52.7F - - 32F 5 0% 0.00 in - 0% 0 mhos 0 - Yes - - -
06/18/2018 01:43 Wet 52.9F - - 32F 5 0% 0.00 in - 0% 0 mhos 0 - Yes - - -
06/18/2018 01:41 Wet 52.7F - - 32F 5 0% 0.00 in - 0% 0 mhos 0 - Yes - - -
06/18/2018 01:33 Wet 53.1F - - 32F 5 0% 0.00 in - 0% 0 mhos 0 - Yes - - -
06/18/2018 01:26 Wet 52.9F - - 32F 5 0% 0.00 in - 0% 0 mhos 0 - Yes - - -
06/18/2018 01:23 Wet 52.9F - - 32F 5 0% 0.00 in - 0% 0 mhos 0 - None None - -
06/18/2018 01:13 Wet 52.9F - - 32F 5 0% 0.00 in - 0% 0 mhos 0 - None None - -
06/18/2018 01:11 Wet 52.9F - - 32F 5 0% 0.00 in - 0% 0 mhos 0 - Yes - - -
06/18/2018 01:03 Wet 53.1F - - 32F 5 0% 0.00 in - 0% 0 mhos 0 - Yes - - -
06/18/2018 00:56 Wet 53.1F - - 32F 5 0% 0.00 in - 0% 0 mhos 0 - Yes - - -
06/18/2018 00:53 Wet 53.1F - - 32F 5 0% 0.00 in - 0% 0 mhos 0 - None None - -
06/18/2018 00:43 Wet 53.1F - - 32F 5 0% 0.00 in - 0% 0 mhos 0 - None None - -
Date/Time
(MDT)
Sf
Temp Chem Water Layer Surface Precipitation
Sfc Pvt Sub Frz Factor Pct Dpth DpthThk IcePct Cond Salin FI Type Intens Accum Rate
06/18/2018 00:41 Wet 53.2F - - 32F 5 0% 0.00 in - 0% 0 mhos 0 - None None - -
06/18/2018 00:33 Wet 53.4F - - 32F 5 0% 0.00 in - 0% 0 mhos 0 - None None - -
06/18/2018 00:26 Wet 53.2F - - 32F 5 0% 0.00 in - 0% 0 mhos 0 - None None - -
06/18/2018 00:23 Wet 53.2F - - 32F 5 0% 0.00 in - 0% 0 mhos 0 - None None - -
06/18/2018 00:13 Wet 53.2F - - 32F 5 0% 0.00 in - 0% 0 mhos 0 - None None - -
06/18/2018 00:11 Wet 53.4F - - 32F 5 0% 0.00 in - 0% 0 mhos 0 - None None - -
06/18/2018 00:03 Wet 53.2F - - 32F 5 0% 0.00 in - 0% 0 mhos 0 - None None - -
06/17/2018 23:56 Wet 53.2F - - 32F 5 0% 0.00 in - 0% 0 mhos 0 - None None - -
06/17/2018 23:52 Wet 53.4F - - 32F 5 0% 0.00 in - 0% 0 mhos 0 - None None - -
06/17/2018 23:42 Wet 53.2F - - 32F 5 0% 0.00 in - 0% 0 mhos 0 - None None - -
06/17/2018 23:41 Wet 53.2F - - 32F 5 0% 0.00 in - 0% 0 mhos 0 - None None - -
06/17/2018 23:32 Wet 53.2F - - 32F 5 0% 0.00 in - 0% 0 mhos 0 - None None - -
06/17/2018 23:26 Wet 53.2F - - 32F 5 0% 0.00 in - 0% 0 mhos 0 - None None - -
06/17/2018 23:22 Wet 53.2F - - 32F 5 0% 0.00 in - 0% 0 mhos 0 - None None - -
06/17/2018 23:12 Wet 53.6F - - 32F 5 0% 0.10 in - 0% 0 mhos 0 - Yes - - -
Date/Time
(MDT)
Sf
Temp Chem Water Layer Surface Precipitation
Sfc Pvt Sub Frz Factor Pct Dpth DpthThk IcePct Cond Salin FI Type Intens Accum Rate
06/17/2018 23:11 Wet 53.6F - - 32F 5 0% 0.00 in - 0% 0 mhos 0 - Yes - - -
06/17/2018 23:02 Wet 53.6F - - 32F 5 0% 0.00 in - 0% 0 mhos 0 - Yes - - -
06/17/2018 22:56 Wet 53.8F - - 32F 5 0% 0.00 in - 0% 0 mhos 0 - Yes - - -
06/17/2018 22:52 Wet 53.8F - - 32F 5 0% 0.00 in - 0% 0 mhos 0 - Yes - - -
06/17/2018 22:42 Wet 53.8F - - 32F 5 0% 0.00 in - 0% 0 mhos 0 - Yes - - -
06/17/2018 22:41 Wet 53.8F - - 32F 5 0% 0.00 in - 0% 0 mhos 0 - Yes - - -
06/17/2018 22:32 Wet 53.8F - - 32F 5 0% 0.00 in - 0% 0 mhos 0 - None None - -
06/17/2018 22:26 Wet 53.8F - - 32F 5 0% 0.00 in - 0% 0 mhos 0 - None None - -
06/17/2018 22:22 Wet 53.8F - - 32F 5 0% 0.00 in - 0% 0 mhos 0 - None None - -
06/17/2018 22:12 Wet 54.0F - - 32F 5 0% 0.10 in - 0% 0 mhos 0 - None None - -
06/17/2018 22:11 Wet 54.0F - - 32F 5 0% 0.00 in - 0% 0 mhos 0 - None None - -
06/17/2018 22:02 Wet 54.0F - - 32F 5 0% 0.00 in - 0% 0 mhos 0 - Yes - - -
06/17/2018 21:56 Wet 54.1F - - 32F 5 0% 0.00 in - 0% 0 mhos 0 - Yes - - -
06/17/2018 21:52 Wet 54.1F - - 32F 5 0% 0.00 in - 0% 0 mhos 0 - Yes - - -
06/17/2018 21:42 Wet 54.5F - - 32F 5 0% 0.10 in - 0% 0 mhos 0 - Yes - - -
Date/Time
(MDT)
Sf
Temp Chem Water Layer Surface Precipitation
Sfc Pvt Sub Frz Factor Pct Dpth DpthThk IcePct Cond Salin FI Type Intens Accum Rate
06/17/2018 21:41 Wet 54.5F - - 32F 5 0% 0.10 in - 0% 0 mhos 0 - Yes - - -
06/17/2018 21:32 Wet 54.7F - - 32F 5 0% 0.00 in - 0% 0 mhos 0 - Yes - - -
06/17/2018 21:26 Wet 54.9F - - 32F 5 0% 0.10 in - 0% 0 mhos 0 - Yes - - -
06/17/2018 21:22 Wet 54.9F - - 32F 5 0% 0.00 in - 0% 0 mhos 0 - Yes - - -
06/17/2018 21:11 Wet 55.0F - - 32F 5 0% 0.00 in - 0% 0 mhos 0 - Yes - - -
06/17/2018 21:11 Wet 55.0F - - 32F 5 0% 0.00 in - 0% 0 mhos 0 - None None - -
06/17/2018 21:01 Wet 55.2F - - 32F 5 0% 0.00 in - 0% 0 mhos 0 - Yes - - -
06/17/2018 20:56 Wet 55.4F - - 32F 5 0% 0.00 in - 0% 0 mhos 0 - Yes - - -
06/17/2018 20:51 Wet 55.8F - - 32F 5 0% 0.00 in - 0% 0 mhos 0 - Yes - - -
06/17/2018 20:41 Wet 55.8F - - 32F 5 0% 0.00 in - 0% 0 mhos 0 - Yes - - -
06/17/2018 20:41 Wet 55.8F - - 32F 5 0% 0.00 in - 0% 0 mhos 0 - Yes - - -
06/17/2018 20:31 Wet 56.3F - - 32F 5 0% 0.00 in - 0% 0 mhos 0 - Yes - - -
06/17/2018 20:26 Wet 56.3F - - 32F 5 0% 0.00 in - 0% 0 mhos 0 - Yes - - -
06/17/2018 20:21 Wet 56.3F - - 32F 5 0% 0.00 in - 0% 0 mhos 0 - Yes - - -
06/17/2018 20:11 Wet 56.5F - - 32F 5 0% 0.00 in - 0% 0 mhos 0 - Yes - - -
Date/Time
(MDT)
Sf
Temp Chem Water Layer Surface Precipitation
Sfc Pvt Sub Frz Factor Pct Dpth DpthThk IcePct Cond Salin FI Type Intens Accum Rate
06/17/2018 20:11 Wet 56.5F - - 32F 5 0% 0.00 in - 0% 0 mhos 0 - Yes - - -
06/17/2018 20:01 Wet 56.8F - - 32F 5 0% 0.00 in - 0% 0 mhos 0 - Yes - - -
06/17/2018 19:56 Wet 57.0F - - 32F 5 0% 0.00 in - 0% 0 mhos 0 - Yes - - -
06/17/2018 19:51 Wet 57.0F - - 32F 5 0% 0.00 in - 0% 0 mhos 0 - Yes - - -
06/17/2018 19:41 Wet 56.8F - - 32F 5 0% 0.00 in - 0% 0 mhos 0 - Yes - - -
06/17/2018 19:41 Wet 56.8F - - 32F 5 0% 0.00 in - 0% 0 mhos 0 - Yes - - -
06/17/2018 19:31 Wet 57.4F - - 32F 5 0% 0.00 in - 0% 0 mhos 0 - Yes - - -
06/17/2018 19:26 Wet 57.4F - - 32F 5 0% 0.00 in - 0% 0 mhos 0 - None None - -
06/17/2018 19:21 Wet 57.9F - - 32F 5 0% 0.00 in - 0% 0 mhos 0 - None None - -
06/17/2018 19:11 Wet 59.0F - - 32F 5 0% 0.00 in - 0% 0 mhos 0 - None None - -
06/17/2018 19:11 Wet 59.0F - - 32F 5 0% 0.00 in - 0% 0 mhos 0 - None None - -
06/17/2018 19:01 Wet 58.6F - - 32F 5 0% 0.00 in - 0% 0 mhos 0 - Yes - - -
06/17/2018 18:56 Wet 58.5F - - 32F 5 0% 0.00 in - 0% 0 mhos 0 - Yes - - -
06/17/2018 18:51 Wet 58.5F - - 32F 5 0% 0.00 in - 0% 0 mhos 0 - Yes - - -
06/17/2018 18:41 Wet 58.6F - - 32F 5 0% 0.00 in - 0% 0 mhos 0 - Yes - - -
Date/Time
(MDT)
Sf
Temp Chem Water Layer Surface Precipitation
Sfc Pvt Sub Frz Factor Pct Dpth DpthThk IcePct Cond Salin FI Type Intens Accum Rate
06/17/2018 18:40 Wet 58.8F - - 32F 5 0% 0.00 in - 0% 0 mhos 0 - Yes - - -
06/17/2018 18:30 Wet 60.1F - - 32F 5 0% 0.00 in - 0% 0 mhos 0 - None None - -
06/17/2018 18:26 Wet 60.4F - - 32F 5 0% 0.00 in - 0% 0 mhos 0 - None None - -
06/17/2018 18:20 Wet 59.9F - - 32F 5 0% 0.00 in - 0% 0 mhos 0 - None None - -
06/17/2018 18:11 Wet 59.2F - - 32F 5 0% 0.00 in - 0% 0 mhos 0 - None None - -
06/17/2018 18:10 Wet 59.4F - - 32F 5 0% 0.00 in - 0% 0 mhos 0 - None None - -
06/17/2018 18:00 Wet 58.3F - - 32F 5 0% 0.00 in - 0% 0 mhos 0 - None None - -
06/17/2018 17:56 Wet 58.6F - - 32F 5 0% 0.00 in - 0% 0 mhos 0 - None None - -
06/17/2018 17:50 Wet 58.6F - - 32F 5 0% 0.00 in - 0% 0 mhos 0 - Yes - - -
06/17/2018 17:41 Wet 58.1F - - 32F 5 0% 0.00 in - 0% 0 mhos 0 - Yes - - -
06/17/2018 17:40 Wet 58.3F - - 32F 5 0% 0.00 in - 0% 0 mhos 0 - Yes - - -
06/17/2018 17:30 Wet 56.7F - - 32F 5 0% 0.00 in - 0% 0 mhos 0 - Yes - - -
06/17/2018 17:26 Wet 56.7F - - 32F 5 0% 0.00 in - 0% 0 mhos 0 - Yes - - -
06/17/2018 17:20 Wet 56.5F - - 32F 5 0% 0.10 in - 0% 0 mhos 0 - Yes - - -
06/17/2018 17:11 Wet 56.7F - - 32F 5 0% 0.10 in - 0% 0 mhos 0 - Yes - - -
Date/Time
(MDT)
Sf
Temp Chem Water Layer Surface Precipitation
Sfc Pvt Sub Frz Factor Pct Dpth DpthThk IcePct Cond Salin FI Type Intens Accum Rate
06/17/2018 17:10 Wet 56.7F - - 32F 5 0% 0.10 in - 0% 0 mhos 0 - Yes - - -
06/17/2018 17:00 Wet 56.8F - - 32F 5 0% 0.10 in - 0% 0 mhos 0 - Yes - - -
06/17/2018 16:56 Wet 56.7F - - 32F 5 0% 0.10 in - 0% 0 mhos 0 - Yes - - -
06/17/2018 16:50 Wet 56.7F - - 32F 5 0% 0.10 in - 0% 0 mhos 0 - Yes - - -
06/17/2018 16:41 Wet 57.4F - - 32F 5 0% 0.10 in - 0% 0 mhos 0 - Yes - - -
06/17/2018 16:40 Wet 57.4F - - 32F 5 0% 0.10 in - 0% 0 mhos 0 - Yes - - -
06/17/2018 16:30 Wet 58.1F - - 32F 5 0% 0.00 in - 0% 0 mhos 0 - Yes - - -
06/17/2018 16:26 Wet 58.5F - - 32F 5 0% 0.00 in - 0% 0 mhos 0 - Yes - - -
06/17/2018 16:20 Wet 58.3F - - 32F 5 0% 0.00 in - 0% 0 mhos 0 - Yes - - -
06/17/2018 16:11 Wet 58.1F - - 32F 5 0% 0.00 in - 0% 0 mhos 0 - Yes - - -
06/17/2018 16:10 Wet 58.5F - - 32F 5 0% 0.00 in - 0% 0 mhos 0 - Yes - - -
06/17/2018 15:59 Wet 58.8F - - 32F 5 0% 0.00 in - 0% 0 mhos 0 - Yes - - -
06/17/2018 15:56 Wet 58.8F - - 32F 5 0% 0.00 in - 0% 0 mhos 0 - Yes - - -
06/17/2018 15:49 Wet 59.2F - - 32F 5 0% 0.00 in - 0% 0 mhos 0 - Yes - - -
06/17/2018 15:41 Wet 59.9F - - 32F 5 0% 0.00 in - 0% 0 mhos 0 - Yes - - -
Date/Time
(MDT)
Sf
Temp Chem Water Layer Surface Precipitation
Sfc Pvt Sub Frz Factor Pct Dpth DpthThk IcePct Cond Salin FI Type Intens Accum Rate
06/17/2018 15:39 Wet 60.3F - - 32F 5 0% 0.00 in - 0% 0 mhos 0 - Yes - - -
06/17/2018 15:29 Dry 61.7F - - - - - - - - 0 mhos 0 - Yes - - -
06/17/2018 15:26 Dry 62.8F - - - - - - - - 0 mhos 0 - None None - -
06/17/2018 15:19 Dry 63.0F - - - - - - - - 0 mhos 0 - Yes - - -
06/17/2018 15:11 Wet 63.5F - - 32F 5 0% 0.00 in - 0% 0 mhos 0 - None None - -
06/17/2018 15:09 Wet 64.2F - - 32F 5 0% 0.00 in - 0% 0 mhos 0 - None None - -
06/17/2018 14:59 Wet 64.8F - - 32F 5 0% 0.00 in - 0% 0 mhos 0 - Yes - - -
06/17/2018 14:56 Wet 65.1F - - 32F 5 0% 0.00 in - 0% 0 mhos 0 - Yes - - -
06/17/2018 14:49 Wet 64.8F - - 32F 5 0% 0.00 in - 0% 0 mhos 0 - Yes - - -
06/17/2018 14:41 Wet 65.7F - - 32F 5 0% 0.00 in - 0% 0 mhos 0 - Yes - - -
06/17/2018 14:39 Dry 66.7F - - - - - - - - 0 mhos 0 - Yes - - -
06/17/2018 14:29 Dry 67.3F - - - - - - - - 0 mhos 0 - None None - -
06/17/2018 14:26 Dry 67.3F - - - - - - - - 0 mhos 0 - None None - -
06/17/2018 14:19 Dry 68.5F - - - - - - - - 0 mhos 0 - None None - -
06/17/2018 14:11 Dry 67.6F - - - - - - - - 0 mhos 0 - None None - -
Date/Time
(MDT)
Sf
Temp Chem Water Layer Surface Precipitation
Sfc Pvt Sub Frz Factor Pct Dpth DpthThk IcePct Cond Salin FI Type Intens Accum Rate
06/17/2018 14:09 Dry 66.6F - - - - - - - - 0 mhos 0 - None None - -
06/17/2018 13:59 Dry 66.0F - - - - - - - - 0 mhos 0 - None None - -
06/17/2018 13:56 Dry 65.8F - - - - - - - - 0 mhos 0 - None None - -
06/17/2018 13:49 Dry 65.5F - - - - - - - - 0 mhos 0 - None None - -
06/17/2018 13:41 Dry 64.8F - - - - - - - - 0 mhos 0 - None None - -
06/17/2018 13:39 Dry 65.3F - - - - - - - - 0 mhos 0 - None None - -
06/17/2018 13:29 Dry 65.1F - - - - - - - - 0 mhos 0 - None None - -
06/17/2018 13:26 Dry 64.8F - - - - - - - - 0 mhos 0 - None None - -
06/17/2018 13:18 Dry 64.2F - - - - - - - - 0 mhos 0 - None None - -
06/17/2018 13:11 Dry 63.7F - - - - - - - - 0 mhos 0 - None None - -
06/17/2018 13:08 Dry 64.0F - - - - - - - - 0 mhos 0 - None None - -
06/17/2018 12:58 Dry 65.7F - - - - - - - - 0 mhos 0 - None None - -
06/17/2018 12:56 Dry 65.7F - - - - - - - - 0 mhos 0 - None None - -
06/17/2018 12:48 Dry 66.4F - - - - - - - - 0 mhos 0 - None None - -
06/17/2018 12:41 Dry 64.4F - - - - - - - - 0 mhos 0 - Yes - - -
Date/Time
(MDT)
Sf
Temp Chem Water Layer Surface Precipitation
Sfc Pvt Sub Frz Factor Pct Dpth DpthThk IcePct Cond Salin FI Type Intens Accum Rate
06/17/2018 12:38 Dry 63.9F - - - - - - - - 0 mhos 0 - None None - -
06/17/2018 12:28 Wet 64.8F - - 32F 5 0% 0.00 in - 0% 0 mhos 0 - Yes - - -
06/17/2018 12:26 Wet 64.4F - - 32F 5 0% 0.00 in - 0% 0 mhos 0 - Yes - - -
06/17/2018 12:18 Dry 64.9F - - - - - - - - 0 mhos 0 - Yes - - -
06/17/2018 12:11 Dry 63.3F - - - - - - - - 0 mhos 0 - None None - -
06/17/2018 12:08 Dry 63.9F - - - - - - - - 0 mhos 0 - None None - -
06/17/2018 11:58 Dry 64.2F - - - - - - - - 0 mhos 0 - None None - -
06/17/2018 11:56 Dry 64.2F - - - - - - - - 0 mhos 0 - None None - -
06/17/2018 11:48 Dry 65.1F - - - - - - - - 0 mhos 0 - None None - -
06/17/2018 11:41 Dry 65.8F - - - - - - - - 0 mhos 0 - None None - -
06/17/2018 11:38 Dry 65.8F - - - - - - - - 0 mhos 0 - None None - -
Change End Date:

Copyright © 1998-2015 Vaisala, Inc.
All Rights Reserved
Send comments about the data to:
SCAN Web ® is a registered trademark of Vaisala, Inc.
SCAN Web Version 6.0